Skip Page Navigation
NASA JPL Caltech
NASA Logo - Jet Propulsion Laboratory + View the NASA Portal
+ Center for Near-Earth Object Studies
JPL Home Earth Solar System Stars & Galaxies Technology
JPL Solar System Dynamics
BODIES ORBITS EPHEMERIDES TOOLS PHYSICAL DATA DISCOVERY FAQ SITE MAP
JPL Small-Body Database Browser
Search: [ help ]  
332093 (2005 UP103)
Classification: Main-belt Asteroid          SPK-ID: 2332093
Ephemeris | Orbit Diagram | Orbital Elements | Mission Design | Physical Parameters | Discovery Circumstances ]

[ show orbit diagram ]
Orbital Elements at Epoch 2459000.5 (2020-May-31.0) TDB
Reference: JPL 6 (heliocentric ecliptic J2000)
 Element Value Uncertainty (1-sigma)   Units 
e .2241747389445706 9.1966e-08  
a 2.482929271907288 3.4475e-08 au
q 1.926319250559639 2.4308e-07 au
i 2.750647218506209 1.9046e-05 deg
node 76.29108939983593 0.00016564 deg
peri 245.7410980207862 0.00017369 deg
M 324.053230376202 5.4679e-05 deg
tp 2459143.192884519181
(2020-Oct-20.69288452)
0.00021875 TDB
period 1429.041857293809
3.91
2.9763e-05
8.149e-08
d
yr
n .2519170436908935 5.2468e-09 deg/d
Q 3.039539293254937 4.2204e-08 au
  Orbit Determination Parameters
   # obs. used (total)      68  
   data-arc span      6387 days (17.49 yr)  
   first obs. used      2001-10-11  
   last obs. used      2019-04-07  
   planetary ephem.      DE431  
   SB-pert. ephem.      SB431-N16  
   condition code      0  
   norm. resid. RMS      .62236  
   source      ORB  
   producer      Otto Matic  
   solution date      2019-Jul-14 05:29:39  

Additional Information
 Earth MOID = .915761 au 
 Jupiter MOID = 2.29073 au 
 T_jup = 3.441 
[ show covariance matrix ]

Ephemeris | Orbit Diagram | Orbital Elements | Mission Design | Physical Parameters | Discovery Circumstances ]

Physical Parameter Table
Parameter Symbol Value Units Sigma Reference Notes
absolute magnitude H 17.5   n/a MPO434079  

332093 (2005 UP103)          Discovered 2005-Oct-22 by Spacewatch at Kitt Peak
Reference: 20120703/Numbers.arcLast Updated: 2012-07-09
Ephemeris | Orbit Diagram | Orbital Elements | Mission Design | Physical Parameters | Discovery Circumstances ]
ABOUT SSD CREDITS/AWARDS PRIVACY/COPYRIGHT GLOSSARY LINKS
FirstGov 2020-Sep-24 16:00 UT
(server date/time)  
NASA Home Page
Site Manager:   Ryan S. Park
Webmaster  Alan B. Chamberlin